Погода в Тобольске

Хотите узнать прогноз погоды в Тобольске? Тогда Вам сюда: Погода в Тобольске

Поиск расширенной информации на нашем сайте:

Полезная информация:

Новости сайта



02.01.2020
Опубликован Долгосрочный прогноз погоды по городам России и ближнего зарубежья на январь 2020 года.
Карты: Прогноз на январь и февраль 2020 года, Сравнение прогнозируемой аномалии приземной температуры воздуха на январь 2020 года по разным моделям.




Погода в Тобольске - сегодня

Время (UTC), дата Ветер
(°,м/с) 
Видим.   Явления Облачность Т
(°С)
Тd
(°С)
f(%) Тe
(°С)
Pmin
(гПа)
dP
(гПа)
Po
(мм)
O2
(г/м3)
Тmin Tmax R s Состояние
почвы
15 27.03.20 300 (СЗ) 2{10}  10 км    9/9 600 м кучево-дожд. 
[Cb cap]
+1.9 -7.3 50 +1  1017.4  1.4  758  304    +4.6  0.0     
18 27.03.20 300 (СЗ) 10 км    9/9 600 м 
[Sc]
+1.2 -6.7 56 +1  1018.2  0.8  759  305           
21 27.03.20 300 (СЗ) 10 км    10/10 600 м 
[Sc]
+0.9 -7.2 55 1018.9  0.7  760  306           
00 28.03.20 300 (СЗ) 10 км    ясно 
-1.3 -8.1 60 -1  1020  760  309           
03 28.03.20 250 (З) 20000 м    ясно 
-1.1 -7.9 60 -2  1020.5  0.5  761  309  -3.5      20  равномерный
сухой снег
100% 
06 28.03.20 260 (З) 20000 м    ясно 
+3.7 -7.3 44 +2  1020.5  0.2  761  303           
09 28.03.20 270 (З) 20000 м    3/3 600 м 
[Sc]
+5.9 -7.9 36 +4  1019.4  -1.1  760  301           
12 28.03.20 250 (З) 20000 м    6/0 верхняя 
[Ci sp]
+7 -8.5 32 +6  1018.5  -0.8  759  299           
15 28.03.20 220 (ЮЗ) 10 км    3/0 верхняя 
[Ci sp]
+3 -7.3 47 +2  1018.1  -0.5  759  303    +7.2       
18 28.03.20 230 (ЮЗ) 10 км    ясно 
+1.4 -7.3 52 +1  1017.8  -0.4  759  305           
21 28.03.20 240 (ЮЗ) 10 км    ясно 
+0.3 -6.6 60 1017.3  -0.5  758  306           
00 29.03.20 230 (ЮЗ) 10 км    ясно 
-4.6 -7.3 81 -4  1017.7  0.3  759  312           
03 29.03.20 230 (ЮЗ) 20000 м    3/0 верхняя 
[Ci sp]
+1.3 -4.8 64 +1  1017.4  -0.1  758  305  -5.2      18  равномерный
сухой снег
100% 
06 29.03.20 220 (ЮЗ) 20000 м    3/0 верхняя 
[Ci sp]
+7.7 -3.2 46 +8  1016.8  -0.5  758  297           
09 29.03.20 230 (ЮЗ) 20000 м    10/0 верхняя 
[Ci sp]
+9.8 -3.1 40 +9  1015.6  -1.2  757  295           
12 29.03.20 230 (ЮЗ) 20000 м    10/0 средняя, верхняя 
[Ac trans|Ci sp]
+9.8 -3.2 40 +9  1014.6  -1  756  295           
15 29.03.20 200 (Ю) 10 км    4/0 верхняя 
[Ci sp]
+7 -2.2 52 +7  1014.4  -0.2  756  297    +10.6       
18 29.03.20 230 (ЮЗ) 10 км    8/0 средняя 
[Ac trans]
+5.3 -2.2 58 +4  1014.8  0.3  757  299           
21 29.03.20 220 (ЮЗ) 10 км    8/0 средняя 
[Ac trans]
+4 -3 60 +3  1014  -0.8  756  301           
00 30.03.20 000 (С) 22  0300 м    1/0 100 м верхняя 
[Ci sp]
-3   1013.9  -0.1  756             
03 30.03.20 210 (ЮЗ) 20000 м    10/0 средняя 
[Ac und]
+2.6 -3.1 66 +1  1013.9  756  302  +1.4      15  равномерный
сухой снег
100% 
06 30.03.20 210 (ЮЗ) 20000 м    4/0 верхняя 
[Ci fib]
+7 -3 49 +6  1014  0.2  756  297           
09 30.03.20 230 (ЮЗ) 20000 м    10/0 верхняя 
[Ci sp]
+10.1 -2.7 41 +9  1013.8  -0.2  756  294           
12 30.03.20 220 (ЮЗ) 20000 м    10/0 верхняя 
[Ci fib]
+10.1 -2.2 42 +10  1014  0.3  756  294           
15 30.03.20 210 (ЮЗ) 10 км    3/0 верхняя 
[Ci sp]
+8.1 -2.6 47 +7  1013.7  -0.4  756  296    +10.5       
Время (UTC), дата Ветер
(°,м/с) 
Видим.   Явления Облачность Т
(°С)
Тd
(°С)
f(%) Тe
(°С)
Pmin
(гПа)
dP
(гПа)
Po
(мм)
O2
(г/м3)
Тmin Tmax R s Состояние
почвы

Для получения пояснительной информации подведите курсор к названию столбца.

ПОГОДА в Тобольске - архив

Всё, что Вы хотите узнать о погоде в Тобольске - удобно и подробно!

Выберите нужную дату (начиная с 1 января 2019* года) и нажмите кнопку "Найти".
Будут отображены архивные сводки погоды по пункту Тобольск, начиная с указанной даты.


Отображать данные в формате CSV (для использования в таблицах Excel)


Внимание! Наш архив погоды предназначен исключительно для личного некоммерческого использования в познавательных целях. Если Вам необходимы официальные справки о состоянии погоды (для производственных, юридических, коммерческих и т.п. целей), обращайтесь в органы Росгидромета.

*Примечание: данная дата относится к архиву по метеостанциям СССР (Россия, СНГ, Балтия).
Архив по метеостанциям Зарубежной Европы и Азии (кроме Китая) хранится 10 дней, по другим регионам земного шара (Китай, Африка, Америка, Австралия, Океания) - 1 день.

Тобольск - район местоположения метеостанции


Название, широта, долгота, высота метеостанции:
Тобольск 58.2°ш. 68.2°д. 50 м над ур. моря [Российская Федерация]

Дополнительная информация

В oтличие oт бoльшинства пoгoдных сайтoв мы публикуем пoдрoбную метеoинфoрмацию в детальнoм прoфессиoнальнoм фoрмате.

Характеристики температуры и влажнoсти вoздуха измеряются на высoте 2 м в тени вдали oт зданий и деревьев.
Скoрoсть ветра измеряется на высoте 10 м (на урoвне рoста челoвека скoрoсть ветра ниже в 1.5-2 раза). Если метеoстанция нахoдится в гoрoде или в лесу, тo скoрoсть ветра занижена на 2-4 м/с пo сравнению с oткрытым местoм. Скoрoсть ветра над акватoриями крупных рек и oзёр, а также на вершинах хoлмoв на 2-5 м/с выше, чем в oбычных услoвиях.
Атмoсфернoе давление в разных тoчках местнoсти мoжет значительнo oтличаться oт давления на метеoстанции, в зависимoсти oт услoвий рельефа (при пoдъёме на 10 м давление пoнижается примернo на 1 мм рт.ст.).